Location: Palo Alto
(37.4420°N, 122.1420°W)
Time: 21:27:37
(UTC-07:00)

N. Korean satellite - Pass Details

Date: 14 August 2020
Orbit: 455 x 503 km, 97.2° (Epoch: 22 September)

Event Time Altitude Azimuth Distance (km) Brightness Sun altitude
Rises 05:43:16 0° 34° (NE) 2,541 11.3 -8.4°
Reaches altitude 10° 05:46:11 10° 61° (ENE) 1,667 11.0 -7.9°
Maximum altitude 05:48:06 14° 93° (E) 1,446 10.0 -7.5°
Drops below altitude 10° 05:50:01 10° 126° (SE) 1,675 9.7 -7.2°
Sets 05:52:57 0° 152° (SSE) 2,560 10.3 -6.7°
